Theta_e
352 355 359 360 358 353 353 353 353 353 353 353 355 355 355 355 356 355 355 354 352 351 349 347 346 345 345 347 347 349 349 350
351 355 358 359 358 356 353 352 352 353 353 354 354 355 354 354 355 355 354 352 351 350 348 347 346 347 348 349 349 350 351 351
351 354 355 356 356 355 352 352 352 354 353 353 355 354 354 354 354 353 353 352 350 349 349 348 349 350 351 351 352 353 353 351
351 355 354 353 352 354 353 352 352 354 353 354 355 355 354 354 353 353 353 352 351 350 351 351 351 351 352 353 354 354 354 353
348 352 354 354 350 350 352 353 352 353 353 353 353 353 353 354 354 353 354 352 352 352 352 353 353 353 354 354 354 355 354 353
344 347 350 350 349 349 349 350 352 352 351 352 353 353 354 352 352 352 354 352 352 352 352 353 354 356 356 356 356 353 351 352
334 339 346 348 347 348 347 349 350 349 351 352 352 353 352 352 352 350 350 351 351 352 353 354 354 353 353 351 350 349 350 352
333 339 341 344 348 348 346 348 349 348 350 351 353 354 353 350 350 348 348 347 347 347 345 348 350 350 350 350 349 350 351 353
332 335 340 342 342 345 347 347 346 347 348 349 350 353 351 350 348 347 344 344 346 345 349 350 349 351 351 351 350 353 350 354
339 336 337 343 344 345 345 345 345 345 345 347 348 350 350 348 347 346 344 344 344 345 347 348 349 350 350 350 352 356 350 353
333 338 342 340 344 344 344 345 344 344 345 346 347 347 350 349 347 345 343 342 341 343 347 347 348 349 348 349 352 355 349 352
319 328 335 341 343 344 343 344 343 343 342 343 345 347 348 349 348 347 342 341 341 344 345 348 350 350 349 351 353 352 351 348
313 314 320 325 332 341 342 342 341 341 341 341 342 344 345 346 347 346 342 341 342 344 345 348 349 348 349 352 352 351 348 339
308 309 311 316 316 322 343 342 341 342 341 340 341 341 343 344 344 345 342 342 346 344 346 348 349 350 349 353 351 349 346 344
304 306 306 310 310 314 319 328 341 342 343 343 343 343 345 343 344 345 343 346 348 346 347 348 350 351 351 352 347 341 341 342
303 303 303 303 305 305 310 314 326 329 344 344 345 347 347 347 347 349 347 348 349 348 350 351 350 350 350 351 339 334 334 336
301 301 302 302 303 301 302 307 313 319 334 341 340 345 347 348 349 349 351 350 353 347 350 351 350 346 348 349 341 337 330 330
300 300 301 302 302 302 302 303 305 314 315 323 322 326 332 340 343 349 350 350 351 349 345 348 351 350 343 348 346 339 330 327
299 301 302 302 302 302 303 302 302 301 300 304 308 313 315 325 334 333 338 341 346 347 346 349 350 350 349 343 342 335 326 326
Wind_Speed
13 13 13 15 12 14 14 14 14 14 13 14 12 11 11 9 8 7 6 6 5 5 4 3 3 2 3 4 5 5 6 6
14 12 13 13 12 13 13 14 13 13 12 11 11 10 10 8 7 5 4 4 3 2 1 1 2 3 4 6 6 6 7 7
14 12 10 11 10 10 12 12 12 11 12 11 10 9 8 8 6 5 5 4 2 1 2 2 3 4 5 7 7 7 9 9
13 12 11 11 10 11 10 11 11 11 10 9 8 8 8 7 7 6 6 5 4 3 4 5 5 5 6 8 9 9 9 10
12 12 12 11 12 11 11 12 12 12 10 11 10 9 9 8 8 8 6 6 5 5 6 7 8 7 7 8 10 11 11 12
9 9 9 10 10 10 10 11 12 13 12 11 11 11 8 7 8 8 3 6 8 7 7 8 8 8 9 11 9 10 11 5
1 1 4 5 5 6 4 6 9 8 8 8 9 8 8 7 6 6 6 8 9 9 9 9 9 8 9 5 4 6 4 5
4 3 1 4 5 6 5 3 3 3 4 5 8 8 7 6 6 6 5 5 5 4 5 5 5 5 6 6 5 5 5 6
3 2 5 4 4 4 4 4 4 4 4 5 6 7 6 5 6 6 5 5 5 4 6 5 5 6 7 6 7 8 6 5
12 4 8 9 9 7 7 6 6 5 5 7 6 8 7 7 6 7 6 6 5 5 5 6 7 7 8 8 6 7 6 7
20 19 9 8 9 9 9 7 6 6 6 7 7 8 9 8 7 7 7 6 6 6 6 6 7 7 6 6 7 5 4 5
19 21 21 5 6 9 10 8 8 7 7 7 8 9 10 10 9 9 7 7 7 6 8 7 7 5 6 5 5 4 3 4
22 22 20 18 18 13 11 8 7 8 8 8 8 8 10 11 11 10 9 8 7 6 6 7 6 6 6 6 5 5 3 4
22 22 22 21 21 19 16 7 8 10 9 8 8 8 10 11 12 10 9 8 9 7 7 7 7 6 6 6 6 4 4 4
22 21 21 19 23 19 12 12 7 7 8 8 8 8 10 9 11 10 10 10 9 8 8 9 10 7 7 6 5 4 4 4
22 23 23 22 21 16 14 14 8 9 8 7 7 12 12 11 11 10 9 10 10 10 11 10 10 10 8 5 3 4 4 3
21 21 21 21 19 15 12 12 7 9 8 7 9 10 8 11 12 11 12 11 11 10 11 11 12 10 9 8 7 3 4 4
21 20 19 20 20 18 18 11 11 6 10 8 12 11 15 15 14 13 10 11 11 8 10 9 11 14 11 9 11 6 3 5
19 17 18 18 18 17 19 15 17 10 11 10 11 11 14 16 12 11 11 12 11 8 7 10 10 12 11 12 4 3 6 2
Wind_Direction
142 154 155 142 154 154 145 145 147 146 149 149 151 152 150 150 148 151 148 139 134 126 112 94 73 28 2 339 333 330 325 321
149 156 153 139 152 153 152 150 152 154 153 155 159 162 159 161 165 172 174 167 157 141 105 62 15 339 332 323 321 315 305 305
150 147 145 145 154 160 156 156 158 157 159 164 170 173 174 179 186 197 207 213 214 263 299 310 319 319 316 306 299 294 294 297
151 150 160 156 162 159 166 162 168 167 171 170 180 185 190 198 206 221 232 239 249 270 290 305 310 307 301 296 297 294 288 294
158 164 169 173 167 179 173 173 180 180 181 180 188 197 201 211 224 231 252 236 270 285 293 301 300 296 291 291 293 296 299 293
164 170 187 180 181 184 182 178 187 192 192 194 199 205 209 218 215 225 249 283 276 283 290 293 293 294 298 275 271 287 301 307
322 234 287 257 229 221 211 199 198 193 199 206 208 207 219 224 236 257 267 261 273 281 289 291 295 296 267 301 293 254 297 308
343 289 280 310 289 275 269 258 247 243 236 235 233 228 227 235 232 236 253 255 259 249 279 287 296 299 314 310 309 310 301 294
325 274 232 202 238 230 253 242 232 245 242 255 251 249 248 260 260 262 262 268 270 287 297 297 303 314 308 307 317 317 306 284
342 265 213 204 203 216 234 231 227 222 231 247 248 250 245 246 254 266 268 273 278 292 292 303 308 318 319 313 313 320 313 300
19 8 319 239 228 218 207 227 250 245 244 234 237 244 241 249 250 256 265 272 286 291 298 300 306 307 305 312 310 321 307 310
19 15 14 328 275 243 240 222 219 241 249 256 256 251 245 245 249 259 260 260 258 257 275 279 278 273 285 283 281 276 290 309
21 21 18 18 15 355 291 257 241 234 238 246 253 254 254 255 253 257 258 258 260 266 273 280 292 292 285 282 277 264 272 272
20 18 16 18 13 1 357 293 262 249 238 243 243 247 246 245 248 247 252 253 251 258 253 257 261 259 271 270 264 267 274 289
19 18 16 14 13 3 3 358 329 279 273 258 252 248 243 242 240 241 253 255 249 247 250 249 251 239 237 230 251 252 281 282
20 18 16 9 7 5 3 2 355 352 321 299 283 267 251 243 241 240 249 250 245 247 244 233 239 240 232 213 193 227 236 222
17 16 15 12 8 5 0 351 333 313 350 12 7 356 329 300 275 258 246 246 241 245 235 230 231 237 246 200 220 245 254 200
16 12 11 10 6 10 4 349 352 352 352 1 358 345 344 336 331 320 302 299 284 265 275 263 248 239 244 225 220 236 217 238
9 7 9 9 7 9 7 6 8 5 347 336 328 324 325 329 328 341 341 323 302 288 268 275 262 254 243 251 196 168 75 112